Location: Unspecified
(0.0000°N, 0.0000°E)
Time: 23:38:18

Vanguard 1 Rocket - Pass Details

Date: 15 December 2017
Orbit: 655 x 4222 km, 34.3° (Epoch: 22 March)

Event Time Altitude Azimuth Distance (km) Brightness Sun altitude
Rises 00:04:53 0° 310° (NW) 7,747 - -66.6°
Reaches altitude 10° 00:09:44 10° 311° (NW) 7,002 - -66.5°
Maximum altitude 00:36:01 83° 39° (NE) 4,110 - -64.7°
Exits shadow 00:44:34 54° 118° (ESE) 4,294 10.5 -63.8°
Drops below altitude 10° 00:57:10 10° 125° (SE) 5,882 11.8 -62.3°
Sets 01:00:47 0° 125° (SE) 6,533 12.1 -61.8°
